Location: Wien
(48.2082°N, 16.3738°E)
Time: 13:04:26
(UTC+02:00)

Tiros 1 despin weight - Pass Details

Date: 14 September 2024
Orbit: 573 x 615 km, 48.2° (Epoch: 06 October)

Event Time Altitude Azimuth Distance (km) Brightness Sun altitude
Rises 08:58:56 0° 283° (WNW) 2,892 ? 23.4°
Reaches altitude 10° 09:01:17 10° 280° (W) 1,984 ? 23.7°
Maximum altitude 09:05:46 59° 201° (SSW) 712 ? 24.4°
Drops below altitude 10° 09:10:13 10° 122° (ESE) 1,965 ? 25.1°
Sets 09:12:32 0° 119° (ESE) 2,861 ? 25.4°
